Temp
-5 -5 -6 -6 -6 -6 -6 -6 -6 -6 -6 -6 -6 -6 -6 -6 -6 -6 -6 -6 -6 -6 -6 -7 -7 -7 -8 -8 -8 -8 -8 -8 -8 -8 -9 -9 -9 -9 -10 -10 -10 -9 -9
-5 -5 -6 -6 -6 -6 -6 -6 -6 -6 -6 -6 -6 -6 -6 -6 -6 -6 -6 -6 -6 -7 -7 -7 -7 -8 -8 -8 -8 -8 -9 -9 -9 -9 -9 -9 -9 -9 -9 -10 -10 -10 -10
-5 -5 -6 -6 -6 -6 -6 -6 -6 -6 -6 -6 -6 -6 -6 -6 -6 -6 -6 -6 -7 -7 -7 -7 -7 -8 -8 -8 -8 -8 -8 -8 -8 -9 -9 -9 -9 -9 -9 -10 -10 -10 -10
-5 -5 -6 -6 -6 -6 -6 -6 -6 -6 -6 -6 -6 -6 -6 -6 -6 -6 -7 -6 -7 -6 -7 -8 -8 -8 -8 -8 -8 -8 -8 -9 -8 -8 -9 -9 -9 -9 -9 -9 -10 -10 -10
-5 -5 -5 -6 -6 -6 -6 -6 -6 -6 -6 -6 -5 -6 -6 -6 -6 -6 -7 -7 -7 -6 -7 -7 -8 -7 -7 -8 -8 -8 -8 -9 -8 -8 -8 -8 -8 -8 -8 -9 -10 -10 -10
-5 -5 -6 -5 -6 -6 -6 -6 -6 -6 -6 -6 -6 -6 -6 -6 -6 -6 -6 -7 -7 -6 -7 -8 -7 -7 -7 -7 -8 -8 -8 -8 -8 -8 -8 -8 -8 -8 -8 -8 -9 -9 -10
-5 -5 -5 -6 -6 -6 -6 -6 -7 -7 -6 -6 -6 -5 -6 -5 -6 -6 -6 -7 -6 -6 -7 -8 -7 -7 -8 -7 -8 -8 -8 -8 -8 -8 -8 -8 -8 -8 -8 -8 -9 -8 -9
-5 -5 -5 -5 -6 -6 -6 -6 -6 -6 -6 -6 -5 -6 -5 -5 -5 -6 -6 -6 -6 -6 -7 -7 -7 -7 -7 -7 -8 -8 -8 -8 -8 -8 -8 -8 -8 -8 -8 -8 -8 -8 -9
-5 -5 -5 -5 -6 -6 -6 -6 -6 -6 -5 -5 -5 -5 -5 -5 -6 -6 -6 -6 -6 -6 -7 -7 -7 -7 -7 -7 -7 -7 -7 -8 -8 -8 -8 -8 -8 -8 -8 -8 -8 -8 -8
-5 -5 -5 -5 -6 -6 -6 -6 -6 -6 -6 -6 -5 -5 -5 -5 -6 -5 -5 -5 -6 -6 -6 -6 -7 -7 -7 -6 -7 -7 -7 -7 -8 -7 -8 -7 -7 -8 -8 -8 -8 -8 -8
-5 -5 -5 -5 -5 -6 -6 -6 -6 -6 -6 -5 -5 -5 -5 -5 -6 -6 -5 -5 -6 -6 -6 -7 -6 -6 -6 -6 -7 -7 -6 -7 -7 -7 -7 -7 -8 -8 -8 -8 -8 -8 -8
-5 -5 -5 -5 -5 -6 -6 -6 -6 -6 -6 -6 -5 -6 -6 -6 -6 -6 -6 -6 -6 -6 -6 -7 -6 -6 -7 -7 -6 -7 -7 -7 -7 -8 -7 -7 -8 -8 -7 -7 -7 -8 -8
-5 -5 -5 -5 -5 -6 -6 -6 -6 -6 -6 -6 -6 -6 -5 -6 -6 -6 -6 -6 -7 -7 -7 -7 -6 -6 -7 -7 -7 -7 -7 -7 -7 -8 -7 -7 -7 -7 -7 -7 -7 -7 -7
-5 -5 -5 -5 -5 -6 -6 -6 -6 -6 -6 -7 -6 -6 -6 -6 -7 -6 -6 -6 -6 -7 -7 -7 -6 -6 -7 -7 -7 -7 -7 -6 -7 -8 -7 -7 -7 -7 -7 -7 -7 -7 -8
-5 -4 -5 -5 -5 -6 -6 -6 -6 -6 -7 -7 -7 -6 -6 -6 -7 -6 -7 -6 -6 -6 -7 -7 -7 -6 -7 -7 -7 -7 -7 -6 -6 -7 -7 -7 -7 -7 -7 -7 -7 -7 -7
-5 -5 -5 -5 -6 -6 -6 -6 -6 -6 -6 -7 -6 -7 -7 -7 -7 -7 -7 -7 -7 -7 -7 -7 -7 -7 -7 -7 -7 -7 -7 -6 -7 -7 -7 -7 -7 -7 -7 -7 -7 -7 -7
-5 -5 -6 -6 -6 -6 -6 -6 -6 -6 -6 -7 -7 -7 -7 -7 -7 -7 -7 -6 -7 -6 -7 -7 -7 -7 -7 -8 -7 -7 -7 -6 -6 -7 -7 -7 -7 -7 -7 -7 -7 -7 -7
-5 -6 -5 -6 -6 -6 -6 -6 -6 -6 -6 -7 -6 -6 -7 -7 -6 -6 -6 -6 -7 -7 -8 -7 -7 -6 -7 -8 -7 -7 -7 -6 -6 -6 -7 -7 -7 -6 -6 -7 -7 -7 -7
-6 -6 -6 -6 -6 -6 -6 -6 -6 -7 -7 -7 -6 -6 -6 -7 -6 -6 -6 -6 -7 -7 -8 -7 -7 -7 -8 -7 -7 -7 -7 -6 -6 -6 -7 -6 -6 -6 -7 -6 -7 -7 -7
-6 -6 -6 -5 -6 -6 -6 -7 -7 -7 -7 -7 -6 -6 -6 -6 -6 -6 -7 -7 -7 -7 -7 -7 -8 -7 -7 -7 -7 -7 -7 -7 -7 -6 -6 -7 -6 -6 -6 -6 -6 -7 -7
-6 -6 -6 -6 -6 -6 -7 -7 -7 -7 -7 -7 -6 -6 -6 -6 -6 -6 -7 -7 -7 -7 -7 -7 -8 -7 -7 -7 -7 -7 -7 -7 -7 -6 -6 -6 -7 -6 -6 -6 -7 -7 -7
-6 -6 -6 -6 -6 -6 -6 -7 -7 -8 -6 -7 -6 -6 -7 -7 -6 -6 -7 -7 -7 -7 -7 -7 -8 -8 -7 -8 -8 -8 -7 -7 -7 -7 -7 -6 -6 -7 -6 -6 -7 -7 -7
-6 -6 -6 -5 -6 -6 -6 -7 -6 -6 -6 -7 -6 -7 -6 -6 -6 -6 -7 -7 -7 -8 -7 -7 -8 -8 -8 -7 -7 -7 -7 -8 -7 -7 -6 -6 -6 -6 -6 -6 -6 -6 -6
-7 -6 -6 -5 -6 -6 -6 -6 -6 -6 -6 -6 -7 -7 -7 -7 -7 -7 -7 -7 -7 -7 -8 -8 -8 -7 -7 -8 -7 -7 -7 -7 -7 -7 -7 -7 -7 -7 -7 -6 -6 -6 -6
-7 -7 -6 -6 -6 -5 -6 -6 -6 -6 -6 -6 -6 -6 -6 -6 -6 -6 -7 -7 -7 -7 -8 -7 -7 -8 -8 -8 -7 -7 -8 -8 -8 -8 -8 -7 -7 -8 -7 -7 -6 -6 -6
-6 -6 -6 -5 -6 -6 -6 -6 -6 -6 -6 -6 -6 -6 -6 -6 -6 -6 -7 -7 -7 -7 -7 -8 -8 -8 -8 -8 -8 -8 -7 -7 -8 -8 -8 -8 -7 -7 -7 -7 -7 -7 -6
Height
5916 5914 5914 5913 5914 5915 5915 5916 5916 5917 5917 5917 5917 5917 5917 5917 5915 5915 5915 5915 5914 5912 5912 5910 5909 5908 5908 5907 5907 5907 5906 5906 5906 5906 5905 5903 5902 5902 5903 5904 5905 5906 5907
5915 5914 5913 5914 5914 5914 5916 5917 5916 5916 5917 5917 5918 5918 5918 5917 5917 5916 5915 5915 5914 5913 5913 5912 5910 5909 5908 5908 5907 5907 5906 5905 5905 5905 5904 5904 5903 5903 5903 5904 5905 5906 5908
5915 5915 5914 5914 5914 5914 5915 5916 5917 5916 5917 5916 5917 5916 5917 5917 5916 5915 5915 5915 5914 5913 5911 5910 5909 5908 5908 5908 5907 5906 5905 5904 5904 5903 5903 5903 5903 5902 5903 5904 5906 5907 5909
5915 5915 5916 5915 5914 5914 5914 5915 5916 5916 5916 5916 5915 5915 5916 5916 5916 5916 5916 5915 5914 5913 5911 5910 5909 5908 5907 5906 5905 5904 5904 5903 5903 5901 5902 5901 5901 5902 5903 5904 5905 5908 5910
5914 5915 5916 5916 5916 5916 5915 5914 5915 5915 5915 5914 5913 5914 5915 5915 5916 5916 5916 5915 5914 5913 5911 5911 5910 5909 5907 5905 5903 5904 5903 5902 5901 5901 5901 5900 5900 5897 5901 5903 5904 5907 5910
5913 5914 5914 5916 5916 5916 5915 5914 5914 5915 5914 5913 5912 5913 5913 5914 5915 5916 5916 5916 5915 5914 5913 5911 5910 5910 5908 5905 5904 5903 5902 5900 5899 5900 5899 5900 5900 5899 5900 5901 5905 5907 5910
5912 5912 5914 5914 5916 5915 5915 5914 5914 5914 5914 5913 5912 5911 5913 5912 5915 5915 5917 5917 5915 5915 5914 5912 5911 5910 5907 5905 5903 5902 5900 5898 5897 5898 5899 5899 5899 5900 5902 5905 5906 5908 5910
5909 5910 5912 5914 5914 5915 5914 5914 5913 5914 5913 5912 5912 5912 5913 5913 5915 5917 5917 5917 5916 5916 5915 5914 5912 5910 5908 5905 5904 5902 5898 5897 5897 5897 5897 5899 5899 5900 5902 5905 5907 5910 5910
5909 5909 5911 5913 5914 5914 5913 5913 5912 5911 5912 5911 5911 5911 5912 5914 5916 5917 5918 5916 5916 5917 5916 5915 5913 5910 5908 5906 5904 5902 5900 5897 5898 5897 5897 5897 5898 5899 5902 5906 5907 5910 5911
5910 5909 5910 5913 5913 5913 5914 5913 5911 5909 5909 5909 5910 5911 5911 5914 5916 5919 5918 5916 5917 5917 5917 5916 5914 5912 5909 5907 5904 5902 5901 5899 5897 5898 5898 5898 5897 5899 5902 5905 5908 5910 5913
5908 5908 5910 5911 5911 5913 5913 5913 5912 5909 5909 5909 5910 5911 5911 5913 5915 5918 5918 5917 5918 5918 5918 5918 5916 5913 5912 5908 5906 5904 5903 5900 5898 5897 5898 5898 5899 5900 5902 5906 5908 5911 5913
5908 5907 5909 5910 5910 5912 5912 5913 5912 5910 5909 5908 5909 5910 5911 5913 5915 5918 5918 5918 5918 5919 5919 5919 5917 5915 5913 5910 5908 5906 5904 5902 5901 5898 5898 5899 5899 5900 5902 5904 5908 5911 5913
5908 5907 5908 5909 5910 5910 5911 5912 5912 5911 5909 5907 5909 5910 5911 5912 5913 5915 5916 5918 5919 5919 5918 5918 5916 5915 5913 5912 5909 5909 5906 5904 5903 5900 5897 5899 5901 5902 5905 5907 5910 5912 5914
5905 5905 5906 5907 5908 5909 5910 5911 5911 5910 5908 5906 5906 5908 5910 5911 5912 5914 5917 5919 5918 5918 5917 5917 5917 5916 5915 5913 5910 5910 5907 5905 5904 5901 5900 5901 5904 5905 5908 5910 5912 5915 5916
5903 5903 5905 5905 5906 5906 5908 5909 5909 5908 5907 5906 5905 5906 5908 5909 5910 5913 5916 5918 5918 5918 5916 5917 5918 5916 5914 5912 5911 5912 5910 5908 5906 5904 5905 5906 5906 5907 5909 5912 5914 5916 5918
5902 5902 5903 5903 5905 5905 5906 5907 5908 5907 5906 5905 5905 5905 5906 5907 5909 5914 5916 5917 5917 5917 5917 5919 5920 5917 5914 5917 5913 5912 5913 5913 5909 5906 5908 5910 5910 5909 5912 5913 5915 5918 5921
5901 5901 5901 5903 5903 5905 5905 5906 5906 5906 5905 5904 5904 5903 5904 5906 5908 5913 5914 5916 5917 5916 5916 5920 5920 5918 5916 5916 5915 5915 5916 5917 5912 5909 5909 5912 5912 5913 5913 5915 5917 5919 5922
5898 5898 5899 5901 5902 5902 5903 5904 5905 5904 5904 5903 5901 5902 5903 5905 5906 5911 5914 5916 5917 5916 5918 5919 5921 5921 5919 5918 5917 5918 5916 5916 5914 5913 5912 5913 5915 5916 5915 5917 5918 5919 5922
5897 5898 5897 5899 5900 5900 5902 5903 5902 5902 5901 5900 5899 5899 5900 5901 5905 5909 5914 5915 5916 5917 5917 5919 5921 5921 5919 5918 5919 5919 5917 5917 5917 5917 5914 5915 5916 5917 5918 5919 5920 5922 5922
5895 5896 5897 5900 5900 5900 5901 5901 5900 5900 5898 5898 5897 5897 5898 5901 5904 5908 5914 5915 5916 5916 5917 5919 5921 5920 5918 5918 5917 5917 5918 5917 5918 5919 5918 5918 5918 5918 5919 5919 5919 5922 5924
5895 5897 5899 5898 5899 5899 5900 5899 5897 5899 5899 5898 5897 5897 5899 5901 5904 5908 5912 5912 5913 5914 5914 5916 5919 5920 5919 5919 5919 5918 5917 5918 5919 5919 5920 5918 5919 5919 5920 5920 5921 5921 5924
5896 5897 5897 5897 5898 5899 5899 5898 5898 5899 5899 5899 5898 5898 5899 5900 5904 5907 5909 5910 5910 5914 5914 5916 5917 5917 5919 5918 5917 5918 5919 5919 5918 5920 5918 5920 5921 5922 5921 5921 5921 5923 5924
5898 5897 5897 5898 5898 5899 5898 5898 5899 5899 5899 5899 5899 5898 5900 5901 5903 5906 5907 5909 5910 5913 5914 5916 5916 5917 5916 5917 5916 5918 5918 5919 5919 5918 5918 5920 5921 5921 5922 5922 5923 5924 5925
5899 5898 5899 5900 5899 5899 5899 5899 5899 5899 5900 5900 5899 5899 5900 5901 5901 5905 5907 5909 5909 5912 5912 5914 5915 5916 5916 5915 5914 5915 5917 5918 5920 5919 5921 5921 5921 5920 5922 5923 5922 5924 5925
5899 5899 5901 5902 5901 5899 5900 5899 5899 5899 5900 5900 5900 5901 5902 5902 5903 5905 5907 5908 5908 5911 5912 5913 5913 5913 5914 5914 5912 5913 5916 5918 5919 5919 5921 5921 5920 5920 5921 5922 5923 5924 5927
5900 5901 5904 5903 5900 5900 5900 5900 5900 5900 5901 5901 5901 5902 5902 5901 5903 5905 5907 5909 5908 5911 5911 5911 5911 5913 5915 5914 5915 5916 5916 5918 5918 5916 5917 5917 5919 5921 5922 5924 5926 5926 5928
Wind_Speed
7 8 4 2 3 4 4 6 4 2 4 4 4 3 5 5 4 2 3 4 3 2 1 2 1 2 2 3 5 4 4 5 4 4 3 3 3 5 7 6 3 1 1
7 6 3 1 2 4 3 3 3 1 1 3 2 2 2 4 4 4 3 4 4 2 3 3 3 2 2 1 2 3 2 2 3 3 4 3 2 4 7 10 7 5 2
7 6 4 3 4 3 3 3 1 2 1 1 2 3 3 6 7 7 5 5 4 2 3 3 3 2 2 3 3 4 5 4 3 4 4 4 5 4 6 11 10 8 5
6 5 3 3 5 3 2 5 5 4 3 5 6 5 6 11 9 9 6 5 4 4 4 3 4 4 4 4 3 4 5 3 3 7 6 7 8 8 8 8 12 9 8
4 4 4 4 2 1 2 3 6 7 7 8 8 11 10 12 8 8 5 4 3 5 6 5 5 5 5 5 6 8 10 9 5 7 10 14 11 11 10 5 12 10 11
3 3 3 6 3 1 1 2 6 10 5 7 9 11 11 11 8 3 4 3 3 6 7 6 5 5 7 10 9 10 10 9 9 5 9 12 9 10 16 6 8 12 13
3 4 5 5 5 2 1 1 4 3 6 8 13 5 5 9 9 2 3 4 6 6 7 5 4 6 7 8 9 8 6 4 3 5 3 7 6 3 7 10 9 12 14
3 3 5 5 4 3 3 4 4 6 5 5 3 4 7 8 8 2 3 4 5 4 4 2 7 5 7 8 8 6 4 0 4 9 6 7 6 6 8 11 10 11 15
4 3 4 4 3 3 1 4 4 9 9 10 10 8 6 8 7 3 4 4 2 1 1 2 4 6 7 8 7 5 5 2 0 6 8 11 10 8 11 11 10 11 16
4 4 3 3 1 1 2 1 3 5 2 7 6 7 8 10 8 3 4 3 2 2 2 2 3 6 8 6 5 5 6 4 3 5 5 8 10 12 12 8 9 12 16
4 4 2 3 1 2 0 1 4 5 3 5 4 9 10 10 12 9 3 3 3 3 1 2 2 3 6 8 4 7 8 9 8 8 1 5 7 10 14 13 13 16 18
5 4 4 3 1 3 2 1 2 4 6 8 5 10 7 9 7 8 4 3 1 3 3 5 3 5 5 4 4 5 6 7 7 6 5 6 6 6 12 17 17 21 20
5 5 5 4 3 4 4 1 2 3 5 8 10 8 11 8 12 9 7 5 3 2 1 2 1 3 5 5 4 2 5 5 5 7 10 6 10 12 14 16 17 20 21
6 3 5 5 5 5 5 3 2 2 5 2 9 15 13 12 11 11 8 9 8 4 6 2 2 4 6 3 5 4 5 5 6 9 10 11 21 19 15 18 18 19 19
6 4 4 5 7 7 6 4 2 1 1 3 2 12 14 15 15 13 10 10 7 4 4 5 3 3 4 7 6 3 4 6 8 12 15 17 18 16 15 20 20 20 17
6 6 5 7 7 7 8 6 1 3 3 1 3 0 14 8 10 10 7 9 9 8 9 6 2 2 2 4 7 5 4 5 10 13 13 14 14 16 16 18 20 19 17
8 8 5 6 6 7 9 6 3 3 5 4 1 6 8 11 15 11 11 11 8 7 7 8 3 3 3 4 4 4 6 6 11 14 13 12 12 13 15 18 19 20 19
6 6 4 3 4 6 7 8 5 6 7 6 6 8 9 9 15 12 15 12 9 6 6 7 3 3 4 4 4 4 7 7 10 12 14 13 12 13 15 16 19 20 18
5 6 4 4 3 4 6 7 5 5 7 9 8 9 11 8 11 13 14 12 8 9 11 8 4 4 10 8 5 4 7 8 7 10 12 13 13 13 14 15 16 17 18
6 3 4 3 4 5 5 5 3 3 3 7 4 7 14 11 11 11 11 10 9 11 14 13 7 3 1 5 8 7 6 5 6 7 10 11 12 12 13 14 15 14 15
3 1 3 4 3 3 4 3 6 2 3 7 1 3 8 10 12 8 12 11 11 10 6 8 8 4 3 5 7 6 8 8 6 7 7 10 10 11 12 12 13 14 14
3 2 0 2 1 3 5 6 6 3 5 8 4 7 9 12 12 10 13 10 9 8 9 9 7 4 2 4 5 8 8 9 10 7 7 7 10 9 10 12 12 13 14
4 5 3 2 3 3 6 7 4 3 5 5 5 5 6 9 14 12 11 9 8 8 7 8 6 3 5 4 8 6 10 11 9 7 8 6 5 7 7 10 10 12 13
4 7 5 2 1 2 5 5 3 3 2 4 5 7 7 2 7 10 8 7 9 7 6 6 6 8 5 8 9 9 1 4 10 8 6 7 8 6 7 8 9 8 10
6 5 5 1 2 3 1 2 5 6 4 2 2 6 8 5 5 6 10 10 6 5 7 8 8 7 5 6 4 6 4 5 6 13 12 11 10 10 10 10 10 10 8
10 7 3 1 7 8 5 2 2 5 6 7 6 5 7 7 6 7 10 11 11 9 8 8 6 6 4 1 2 3 3 4 8 13 18 20 15 13 12 10 10 11 12
Wind_Direction
42 30 36 29 330 24 37 47 61 48 20 19 44 25 37 3 337 318 274 251 255 256 333 324 327 0 337 335 331 337 334 330 327 321 314 279 283 268 245 231 234 251 179
21 13 1 88 319 338 37 41 45 89 62 4 16 355 15 353 347 334 295 270 268 321 339 343 334 334 337 360 325 322 334 308 293 301 310 280 299 265 241 228 219 237 236
355 5 354 331 314 303 3 355 339 50 309 270 296 274 308 324 328 348 316 278 273 305 315 342 324 330 333 345 325 316 303 274 272 263 240 240 231 244 241 226 218 226 209
333 10 348 330 331 237 304 321 309 319 297 279 261 268 267 314 301 327 303 282 289 314 305 323 317 322 332 341 321 316 334 327 268 240 228 218 211 221 221 228 220 210 200
331 9 350 349 16 252 334 298 285 298 268 258 273 271 281 291 275 295 281 267 295 307 297 308 303 314 334 332 295 302 306 302 258 256 242 223 217 222 203 218 193 193 189
349 3 13 354 343 352 231 357 273 273 282 239 292 288 286 259 249 269 261 264 295 288 286 285 296 309 334 330 313 304 302 294 274 248 287 229 258 268 231 168 174 178 179
350 15 12 4 349 13 271 354 341 282 259 275 293 261 286 217 204 238 261 274 296 293 285 295 325 346 354 332 320 320 326 337 170 224 187 206 220 207 197 205 183 171 167
11 21 25 7 348 346 287 288 282 286 252 256 255 225 287 215 212 247 258 276 283 292 314 8 352 22 21 6 5 348 352 48 235 214 176 193 204 172 182 201 180 169 160
19 28 27 5 359 346 333 282 262 287 273 261 268 231 235 218 202 210 235 254 259 238 342 20 14 48 49 33 28 20 24 36 223 211 208 197 196 173 186 199 173 169 166
358 27 13 356 352 324 13 92 354 330 243 266 218 189 187 208 190 177 225 252 245 248 295 89 82 63 70 83 65 46 31 21 61 176 211 194 178 172 178 187 174 181 169
14 356 323 343 320 252 228 310 347 8 250 227 244 211 210 213 210 209 241 267 266 249 170 75 29 12 61 70 63 57 55 57 79 159 129 179 181 186 182 187 187 176 166
359 348 284 293 292 224 194 284 325 342 305 244 257 208 182 204 199 208 237 265 78 132 42 58 42 18 52 34 95 82 52 63 81 125 157 161 167 162 167 172 177 171 164
314 310 293 260 270 210 193 229 296 306 303 255 217 212 206 206 217 198 203 213 132 205 257 298 54 56 57 87 84 134 2 69 84 80 121 167 152 133 141 149 160 163 160
291 288 276 271 258 218 193 214 262 325 357 323 225 217 228 218 217 207 208 205 201 200 194 240 273 91 64 74 62 19 68 95 104 81 126 118 131 138 146 151 157 162 156
266 261 263 261 235 230 215 218 250 301 288 29 188 211 222 221 245 205 195 203 220 199 200 193 241 62 63 58 67 68 73 117 115 108 130 135 149 137 147 161 156 154 148
243 240 236 254 227 232 225 220 181 243 259 313 321 163 189 221 196 201 193 197 211 209 219 220 191 72 4 65 75 95 89 147 131 127 138 140 151 147 150 155 153 151 152
248 256 211 230 221 232 240 233 236 265 266 260 277 256 217 225 220 198 181 207 205 212 182 183 195 155 96 61 61 100 140 133 138 133 146 150 155 155 154 157 157 156 159
229 258 251 289 238 229 235 231 248 263 274 294 262 238 226 230 213 202 180 195 203 211 214 190 194 147 165 148 158 142 118 125 131 137 136 145 154 157 157 161 168 164 165
185 221 237 236 265 230 222 235 248 270 274 302 275 216 220 211 185 177 166 189 190 218 215 202 143 212 190 165 168 149 113 123 136 147 145 145 152 152 162 162 162 166 167
165 194 294 278 211 198 212 221 254 280 334 329 261 221 214 194 182 176 161 179 203 230 220 220 211 177 24 151 174 138 113 113 131 145 149 152 154 155 158 158 159 164 169
136 165 220 239 222 204 187 213 188 8 357 16 77 169 196 204 195 181 169 182 192 186 157 155 169 197 179 149 128 140 154 152 148 143 150 153 159 160 161 158 160 162 167
80 66 171 227 217 172 156 170 94 75 52 44 86 183 161 173 184 179 178 196 197 191 194 187 191 174 140 192 180 171 183 171 154 168 144 153 156 163 173 161 163 166 167
58 50 47 62 154 137 139 106 122 129 80 78 50 168 170 208 213 219 190 197 214 202 215 170 180 217 235 292 223 231 208 185 173 171 151 166 164 151 169 163 169 175 174
72 33 23 69 114 124 155 172 156 146 116 129 104 117 175 144 198 198 196 225 218 197 205 218 227 247 258 283 242 214 159 197 202 159 181 179 178 172 187 174 163 180 185
62 52 355 10 104 74 42 192 197 189 201 255 194 164 161 207 233 217 193 195 214 209 222 234 250 251 288 307 260 198 218 231 218 181 187 196 182 186 198 189 181 178 195
72 65 57 106 70 57 23 333 232 211 194 216 234 227 219 207 212 205 212 217 228 226 226 227 236 239 251 261 148 127 262 265 254 221 211 204 193 195 193 192 205 193 193